Location: Ferchesar
(52.6477°N, 12.4298°E)
Time: 13:11:34
(UTC+02:00)

Transit 4A - Pass Details

Date: 28 February 2021
Orbit: 869 x 975 km, 66.8° (Epoch: 16 April)

Event Time Altitude Azimuth Distance (km) Brightness Sun altitude
Rises 13:29:54 0° 255° (WSW) 3,659 11.5 27.9°
Reaches altitude 10° 13:32:43 10° 264° (W) 2,705 10.8 27.8°
Maximum altitude 13:38:29 36° 329° (NNW) 1,481 8.9 27.5°
Drops below altitude 10° 13:44:09 10° 35° (NE) 2,656 9.8 27.2°
Sets 13:46:54 0° 44° (NE) 3,584 10.4 27.0°
